Flag for India Weather past 2 weeks in Ahmedabad, Gujarat, India

63 °F


Feels Like: 63 °F
Forecast: 55 / 89 °F
Wind: 3 mph from Northeast

Location: Ahmadabad Airport

Current Time: Nov 29, 2015 at 12:00:50 AM

Latest Report: Nov 28, 2015 at 11:00 PM

Visibility: 2 mi

Pressure: 29.98 "Hg

Humidity: 56%

Dew point: 46 °F

Location of AhmedabadLocation

Historic Weather in Ahmedabad — Graph


Ahmedabad temperature yesterday

Maximum temperature yesterday: 84 °F (at 2:30 PM)
Minimum temperature yesterday: 55 °F (at 2:30 AM)
Average temperature yesterday: 64 °F

Past Weeks' High & Low Weather Summary

High99 °F (Nov 14, 2:10 PM)78% (Nov 14, 1:10 AM)30.07 "Hg (Nov 14, 1:10 AM)
Low55 °F (Nov 28, 2:30 AM)14% (Nov 27, 3:00 PM)29.80 "Hg (Nov 14, 3:40 PM)
Average78 °F44%29.91 "Hg
* Reported Nov 13 10:40 PM — Nov 28 11:00 PM, Ahmedabad, Weather by CustomWeather, © 2015

Note: Actual official high and low records may vary slightly from our data, if they occured in-between our weather recording intervals... More about our weather records


Ahmedabad weather history for previous 24 hours

Time TempWeatherWind HumidityBarometerVisibility
11:00 PM
Sat, Nov 28
63 °FClear.3 mph56%29.98 "Hg2 mi
10:00 PM64 °FClear.3 mph56%29.98 "Hg2 mi
9:30 PM64 °FClear.5 mph49%29.98 "Hg2 mi
9:00 PM64 °FPassing clouds.3 mph49%29.98 "Hg2 mi
8:30 PM70 °FPassing clouds.3 mph38%29.98 "Hg2 mi
8:00 PM68 °FPassing clouds.No wind49%29.95 "Hg2 mi
7:30 PM70 °FPassing clouds.2 mph43%29.95 "Hg2 mi
7:00 PM72 °FPassing clouds.5 mph36%29.92 "Hg2 mi
5:00 PM82 °FPassing clouds.5 mph23%29.89 "Hg4 mi
2:30 PM84 °FScattered clouds.8 mph22%29.89 "Hg4 mi
1:30 PM82 °FScattered clouds.8 mph23%29.92 "Hg4 mi
9:30 AM72 °FScattered clouds.8 mph36%30.01 "Hg1 mi
9:00 AM66 °FScattered clouds.6 mph43%30.01 "Hg1 mi
8:30 AM64 °FScattered clouds.5 mph49%29.98 "Hg1 mi
8:00 AM59 °FScattered clouds.7 mph59%29.98 "Hg1 mi
7:30 AM55 °FPassing clouds.3 mph63%29.98 "Hg1 mi
7:00 AM55 °FPassing clouds.3 mph63%29.95 "Hg2 mi
5:00 AM55 °FHaze.3 mph59%29.92 "Hg2 mi
4:30 AM55 °FHaze.3 mph63%29.92 "Hg2 mi
4:00 AM55 °FHaze.3 mph59%29.92 "Hg2 mi
3:30 AM55 °FHaze.No wind59%29.89 "Hg2 mi
3:00 AM57 °FHaze.No wind55%29.89 "Hg2 mi
2:30 AM55 °FHaze.No wind63%29.89 "Hg2 mi
2:00 AM57 °FHaze.No wind63%29.89 "Hg2 mi
1:30 AM57 °FHaze.No wind72%29.89 "Hg2 mi
1:00 AM59 °FClear.No wind59%29.89 "Hg2 mi
12:30 AM59 °FClear.No wind59%29.89 "Hg2 mi
Weather by CustomWeather, © 2015

See weather overviewHow to use our weather pages